Vorticity
nan nan nan nan nan nan nan nan nan nan nan nan nan nan nan nan nan nan nan nan nan nan nan nan nan nan nan nan nan nan nan nan nan nan nan nan nan nan nan nan nan nan nan nan
nan 12 4 11 12 10 3 3 5 2 10 7 5 6 5 15 14 16 13 9 8 6 4 5 6 7 7 7 7 9 9 14 18 15 8 9 10 11 10 8 9 9 9 nan
nan 10 17 10 8 9 5 5 5 6 7 8 14 15 19 17 19 15 12 10 9 6 4 4 5 5 5 5 6 7 7 9 14 17 11 6 6 7 9 9 10 10 8 nan
nan 8 14 7 4 7 8 12 6 7 4 8 8 16 22 10 7 9 9 8 7 4 4 5 5 5 6 6 6 5 6 7 7 11 17 9 3 6 9 9 8 10 10 nan
nan 16 8 3 7 4 8 14 13 10 8 9 3 5 7 8 6 10 8 7 5 4 5 5 4 4 4 5 6 6 6 6 7 8 9 10 9 8 8 9 11 13 14 nan
nan 4 12 11 15 4 7 11 8 9 14 13 17 9 11 18 13 9 7 7 4 3 5 5 4 5 4 6 6 6 6 6 5 6 7 9 10 10 7 7 11 12 12 nan
nan -1 2 13 11 14 6 -0 5 10 5 4 21 16 10 15 25 19 8 5 4 3 4 4 5 6 6 6 8 7 6 6 6 7 7 7 8 11 10 10 9 10 11 nan
nan 14 13 6 0 9 13 -5 -2 6 7 12 8 13 14 11 20 14 9 5 2 3 5 5 4 5 7 8 8 7 7 8 8 9 9 8 9 9 10 9 9 10 7 nan
nan 7 14 23 17 -1 13 10 3 5 13 16 7 7 8 10 10 9 8 2 1 4 5 5 5 7 8 8 9 10 9 8 7 9 10 9 8 8 8 9 9 9 9 nan
nan 11 13 12 16 17 5 9 9 13 11 10 10 4 14 17 5 5 5 2 3 4 3 4 6 7 8 9 10 9 8 8 10 11 10 9 9 9 9 9 9 9 10 nan
nan 7 12 8 18 16 1 0 1 9 8 6 10 8 22 26 10 6 2 3 5 5 5 6 7 9 10 9 8 8 8 8 10 12 12 11 10 9 8 8 9 10 12 nan
nan 9 14 4 2 17 21 9 -3 -3 9 1 10 13 14 23 16 6 1 4 6 6 6 8 9 8 8 8 8 8 8 10 11 11 12 13 11 10 8 8 9 10 11 nan
nan 5 4 7 5 13 14 15 8 -5 4 13 -1 5 14 14 10 3 0 4 6 6 8 8 8 8 7 7 7 8 9 11 11 11 14 14 12 9 8 9 10 11 12 nan
nan 2 2 -3 8 20 16 7 12 3 -3 12 6 -1 9 5 3 1 2 5 6 6 7 8 8 8 7 7 8 9 10 11 11 13 16 14 13 11 10 10 10 11 11 nan
nan 6 9 5 9 10 19 15 11 6 1 -6 5 9 12 14 7 0 4 6 7 8 8 8 9 9 10 9 9 10 10 11 14 17 17 15 13 11 10 10 10 11 12 nan
nan 16 19 17 6 8 10 16 14 10 6 4 3 5 14 15 9 9 6 9 7 7 9 10 9 9 10 11 10 9 10 13 18 19 16 13 10 10 10 10 10 10 11 nan
nan 14 13 20 14 5 22 23 10 11 12 13 12 13 8 7 6 7 8 8 8 10 8 7 7 8 10 10 12 10 12 16 18 17 10 9 10 9 8 9 10 10 11 nan
nan 6 7 15 10 3 7 28 29 12 9 5 7 11 9 10 10 9 9 8 10 9 6 6 7 6 8 10 12 15 12 16 17 12 10 9 9 9 9 9 10 9 10 nan
nan 2 9 13 -0 8 17 15 23 18 8 15 10 8 8 9 7 8 13 10 7 6 6 6 6 7 7 10 14 15 15 16 13 10 10 10 10 10 9 9 8 9 9 nan
nan 6 6 9 11 5 17 20 10 11 20 26 16 14 13 6 4 13 9 4 6 6 6 6 7 7 7 10 15 14 16 16 11 10 9 10 10 10 11 10 9 9 9 nan
nan 14 12 6 5 8 20 14 7 6 17 22 20 14 10 3 3 8 7 6 8 9 8 7 7 7 9 10 12 14 18 17 11 12 11 11 11 12 11 9 10 11 10 nan
nan 6 10 9 13 20 16 7 3 8 14 11 12 11 8 7 7 4 5 7 8 11 12 10 10 9 8 10 10 11 12 15 18 14 13 11 10 10 11 11 10 11 10 nan
nan 10 14 10 9 26 10 -0 11 10 7 6 9 5 6 7 5 6 8 8 9 10 12 13 12 10 9 9 7 8 12 16 13 12 12 11 11 11 11 10 9 9 9 nan
nan 11 13 16 16 17 6 4 9 5 5 7 7 8 10 9 8 8 9 9 9 10 9 9 9 8 10 12 10 8 12 14 12 10 11 11 10 9 10 10 10 9 10 nan
nan 13 3 8 16 11 15 8 4 2 3 8 9 8 7 9 10 10 10 11 11 11 10 9 9 10 10 13 14 12 13 9 11 8 10 10 11 11 10 10 12 11 11 nan
nan nan nan nan nan nan nan nan nan nan nan nan nan nan nan nan nan nan nan nan nan nan nan nan nan nan nan nan nan nan nan nan nan nan nan nan nan nan nan nan nan nan nan nan
CAPE
0 0 0 0 0 0 0 0 0 0 0 0 0 0 0 0 0 0 0 0 0 0 0 0 0 0 0 1 98 277 585 833 1183 1464 890 639 632 455 516 839 1006 1057 901 744
0 0 0 0 0 0 0 0 0 0 0 0 0 0 0 0 0 0 0 0 0 0 0 0 0 0 0 0 0 0 0 151 384 900 1211 603 557 533 352 325 186 284 256 102
0 0 0 0 0 0 0 0 0 0 0 0 0 0 0 0 0 0 0 0 0 0 0 0 0 0 0 0 0 0 0 0 247 475 1108 500 17 0 152 349 228 100 48 27
0 0 0 0 0 0 0 0 0 0 0 0 0 0 0 0 0 0 0 0 0 0 0 0 0 0 0 0 0 0 0 0 0 113 272 1012 784 654 671 954 853 408 155 127
0 0 0 0 0 0 0 0 0 0 0 0 0 0 0 0 0 0 0 0 0 0 0 0 0 0 0 0 0 0 0 0 0 0 0 1 98 315 451 553 657 666 471 25
0 0 0 0 0 0 0 0 0 0 0 0 0 0 0 0 0 0 0 0 0 0 0 0 0 0 0 0 0 0 0 0 0 0 0 0 0 0 1 7 117 122 186 183
0 0 0 0 0 0 0 0 3 0 0 0 0 0 0 0 0 0 0 0 0 0 0 0 0 0 0 0 0 0 0 0 0 0 0 0 0 0 0 1 8 7 9 9
1 5 0 0 0 0 0 0 4 10 14 11 0 0 0 0 0 0 0 0 0 0 0 0 0 0 0 0 0 0 0 0 0 0 0 0 0 0 0 0 0 6 17 24
30 7 0 0 0 0 0 6 0 3 3 0 0 0 0 0 0 0 0 0 0 0 0 0 0 0 0 0 0 0 0 0 0 0 0 0 0 0 0 0 4 6 11 17
12 4 0 0 0 0 0 0 3 16 5 5 0 1 0 0 0 0 0 0 0 0 0 0 0 0 0 0 0 0 0 0 0 0 0 0 0 0 0 0 0 2 9 13
0 0 0 0 0 0 0 6 4 2 0 15 7 5 0 0 0 0 0 0 0 0 0 0 0 0 0 0 0 0 0 0 0 0 0 0 0 0 0 0 1 2 9 12
0 2 0 0 0 0 2 4 12 43 19 1 5 1 0 0 0 0 0 0 0 0 0 0 0 0 0 0 0 0 0 0 0 0 0 0 0 4 3 1 1 8 6 6
0 5 3 1 0 0 0 0 8 18 0 13 20 0 0 0 0 0 0 0 0 0 0 0 0 0 0 0 0 0 0 0 0 0 0 0 4 9 11 6 6 8 9 8
0 0 0 4 0 0 0 0 0 11 25 0 1 0 0 0 0 0 0 0 0 0 0 0 0 0 0 0 0 0 0 0 0 0 0 2 12 6 4 4 6 6 5 8
0 1 4 2 0 0 0 0 0 0 0 1 0 0 0 0 0 0 0 0 0 0 0 0 0 0 0 0 0 0 0 2 1 0 0 4 2 1 3 4 5 7 8 7
0 1 5 8 0 0 0 0 0 0 0 0 0 1 0 0 0 0 0 0 0 0 0 0 0 0 0 0 0 0 2 5 1 0 0 2 5 3 3 3 3 5 5 5
0 1 0 12 4 0 1 0 0 0 0 0 0 0 0 0 0 0 0 0 0 0 0 0 0 0 0 0 0 4 11 11 4 1 3 4 6 4 3 3 4 2 4 4
2 7 13 8 3 6 0 0 0 0 0 0 0 0 0 0 0 0 0 0 0 0 0 0 0 0 0 0 0 10 20 6 1 6 4 6 4 3 3 3 2 4 4 4
1 3 6 1 7 0 0 0 0 0 0 0 0 0 0 0 0 0 0 0 0 0 0 0 0 0 0 0 1 14 27 4 6 5 3 3 3 3 5 5 5 4 3 3
19 2 1 14 4 0 0 0 0 0 0 0 0 0 0 0 0 0 0 0 0 0 0 0 0 0 0 0 3 8 29 4 2 0 3 6 0 5 10 3 6 4 4 2
9 8 10 5 3 0 0 0 0 0 0 0 0 0 0 0 0 0 0 0 0 0 0 0 0 2 1 0 0 10 0 1 0 1 4 7 3 7 6 6 6 9 8 7
1 7 8 4 3 1 0 0 0 0 0 0 0 0 0 0 0 0 0 0 0 0 5 10 13 10 2 8 0 1 1 0 0 1 4 3 5 1 2 6 7 9 10 8
0 0 0 0 0 0 0 0 0 0 0 0 0 0 0 0 0 0 0 0 0 1 4 10 29 49 43 15 0 0 0 3 0 1 1 1 3 1 2 3 6 6 4 3
0 0 0 0 0 0 0 0 0 0 0 0 0 0 0 0 0 0 0 0 0 3 14 14 19 26 29 93 41 0 0 0 4 3 1 1 0 1 2 5 9 7 5 6
0 0 0 0 0 0 0 0 0 0 0 0 0 0 0 0 0 0 0 0 0 2 3 3 7 18 32 55 50 1 0 3 4 4 2 2 5 5 5 4 5 4 24 7
0 0 0 0 0 0 0 0 0 0 0 0 0 0 0 0 0 0 0 1 5 10 10 15 14 8 2 6 33 3 1 7 1 5 6 4 4 5 5 4 4 0 0 0